Regional Weather Roundup
Issued by NWS

Home | Current Version | Previous Version | Text Only | Print | Product List | Glossary On
Versions: 1 2 3 4 5 6 7 8 9 10 11 12 13 14 15 16 17 18 19 20 21 22 23 24 25 26 27
000
ASUS45 KCYS 272110
RWRWY

WYOMING REGIONAL WEATHER ROUNDUP
NATIONAL WEATHER SERVICE CHEYENNE WY
300 PM MDT TUE JUN 27 2017

NOTE:  "FAIR" INDICATES FEW OR NO CLOUDS BELOW 12,000 FEET
WITH NO SIGNIFICANT WEATHER AND/OR OBSTRUCTIONS TO VISIBILITY.

WYZ001-272200-
YELLOWSTONE NATIONAL PARK

CITY           SKY/WX    TMP DP  RH WIND       PRES   REMARKS
LK YELLOWSTONE   N/A     45  45 100 CALM      30.14R
W YELLOWSTONE  NOT AVBL

$$
WYZ002>013-054>058-071-098>099-272200-
NORTHERN WYOMING

CITY           SKY/WX    TMP DP  RH WIND       PRES   REMARKS
JACKSON        MOSUNNY   64  45  48 N10       30.04F
CODY           FAIR      61  42  49 SW18G28   29.91F
GREYBULL       LGT RAIN  62  50  64 W30G40    29.86R
WORLAND        NOT AVBL
SHERIDAN       FAIR      77  48  35 NW13      29.79F
BUFFALO        FAIR      75  48  38 N16G23    29.84F
GILLETTE       FAIR      83  44  25 N10G26    29.76S
NEWCASTLE      FAIR      88  34  14 NW14G21   29.73F

$$
WYZ014>020-022>026-101>103-272200-
CENTRAL WYOMING

CITY           SKY/WX    TMP DP  RH WIND       PRES   REMARKS
BIG PINEY      PTSUNNY   65  43  44 W17       30.07F
PINEDALE       RAIN      61  45  55 NW12G21   30.08F
DUBOIS         FAIR      57  43  58 N13       30.05F
LANDER         FAIR      64  42  44 N25G41    29.92R
RIVERTON       PTSUNNY   68  38  33 W30G44    29.99R
CASPER         SUNNY     77  48  36 W17G24    29.85
DOUGLAS        FAIR      82  41  23 W45G61    29.83R SQUALL

$$
WYZ021-027>030-104>119-272200-
SOUTHERN WYOMING

CITY           SKY/WX    TMP DP  RH WIND       PRES   REMARKS
EVANSTON       FAIR      76  31  19 SW25G35   30.10S
KEMMERER         N/A     73  27  17 SW30G43   30.08S
FORT BRIDGER   FAIR      80  33  18 W29G39    30.10S
ROCK SPRINGS   FAIR      82  30  15 W33G43    30.00F
DIXON          FAIR      80  33  17 N7        30.02F
RAWLINS        FAIR      82  31  15 SW21      30.01F
SARATOGA       FAIR      79  32  18 NW12G25   30.04S
LARAMIE        FAIR      84  25  11 W30G38    29.98S
CHEYENNE       FAIR      91  20   7 W32G45    29.88S
TORRINGTON     LGT RAIN  76  47  35 S10G36    29.73R
PINE BLUFFS    FAIR      81  41  24 N9        29.82S

$$




USA.gov is the U.S. government's official web portal to all federal, state and local government web resources and services.